TimeEDT,TemperatureF,Dew PointF,Humidity,Sea Level PressureIn,VisibilityMPH,Wind Direction,Wind SpeedMPH,Gust SpeedMPH,PrecipitationIn,Events,Conditions,WindDirDegrees,DateUTC
12:15 AM,63.9,60.8,90,29.72,10.0,Calm,Calm,-,N/A,,Overcast,0,2013-06-30 04:15:00
12:35 AM,64.0,60.8,89,29.72,10.0,Calm,Calm,-,N/A,,Overcast,0,2013-06-30 04:35:00
12:55 AM,63.9,60.6,89,29.73,10.0,Calm,Calm,-,N/A,,Overcast,0,2013-06-30 04:55:00
1:15 AM,63.7,60.4,89,29.73,10.0,Calm,Calm,-,N/A,,Overcast,0,2013-06-30 05:15:00
1:35 AM,63.7,60.4,89,29.73,10.0,Calm,Calm,-,N/A,,Overcast,0,2013-06-30 05:35:00
1:55 AM,63.7,60.4,89,29.73,10.0,Calm,Calm,-,N/A,,Overcast,0,2013-06-30 05:55:00
2:15 AM,63.5,60.3,89,29.74,5.0,Calm,Calm,-,N/A,,Overcast,0,2013-06-30 06:15:00
2:35 AM,63.5,60.8,91,29.74,7.0,Calm,Calm,-,N/A,,Overcast,0,2013-06-30 06:35:00
2:55 AM,63.7,60.8,90,29.74,5.0,Calm,Calm,-,N/A,,Drizzle,0,2013-06-30 06:55:00
3:15 AM,63.5,60.4,90,29.74,2.0,Calm,Calm,-,N/A,,Overcast,0,2013-06-30 07:15:00
3:35 AM,63.5,60.4,90,29.75,5.0,Calm,Calm,-,N/A,,Overcast,0,2013-06-30 07:35:00
3:55 AM,63.5,60.8,91,29.75,4.0,Calm,Calm,-,N/A,,Overcast,0,2013-06-30 07:55:00
4:15 AM,63.5,60.4,90,29.76,4.0,Calm,Calm,-,N/A,,Mostly Cloudy,0,2013-06-30 08:15:00
4:35 AM,63.5,60.4,90,29.76,2.0,Calm,Calm,-,N/A,,Overcast,0,2013-06-30 08:35:00
4:55 AM,63.3,60.4,90,29.77,3.0,Calm,Calm,-,N/A,,Overcast,0,2013-06-30 08:55:00
5:15 AM,63.3,60.6,91,29.78,1.2,Calm,Calm,-,N/A,,Overcast,0,2013-06-30 09:15:00
5:35 AM,63.0,60.3,91,29.78,7.0,Calm,Calm,-,N/A,,Mostly Cloudy,0,2013-06-30 09:35:00
5:55 AM,62.6,59.9,91,29.79,4.0,Calm,Calm,-,N/A,,Mostly Cloudy,0,2013-06-30 09:55:00
6:15 AM,62.2,59.5,91,29.80,1.0,Calm,Calm,-,N/A,,Overcast,0,2013-06-30 10:15:00
6:35 AM,63.5,60.8,91,29.80,0.2,Calm,Calm,-,N/A,Fog,Fog,0,2013-06-30 10:35:00
6:55 AM,63.7,61.0,91,29.81,0.2,Calm,Calm,-,N/A,Fog,Fog,0,2013-06-30 10:55:00
7:15 AM,64.0,61.2,90,29.82,0.2,Calm,Calm,-,N/A,Fog,Fog,0,2013-06-30 11:15:00
7:35 AM,64.6,61.9,91,29.82,0.2,Calm,Calm,-,N/A,Fog,Fog,0,2013-06-30 11:35:00
7:55 AM,65.1,62.4,91,29.83,0.5,Calm,Calm,-,N/A,Fog,Fog,0,2013-06-30 11:55:00
8:15 AM,66.0,63.3,91,29.84,10.0,Calm,Calm,-,N/A,,Overcast,0,2013-06-30 12:15:00
8:35 AM,68.4,64.9,89,29.85,10.0,Calm,Calm,-,N/A,,Mostly Cloudy,0,2013-06-30 12:35:00
8:55 AM,68.4,62.2,81,29.85,10.0,Calm,Calm,-,N/A,,Mostly Cloudy,0,2013-06-30 12:55:00
9:15 AM,70.9,62.4,75,29.85,10.0,Calm,Calm,-,N/A,,Mostly Cloudy,0,2013-06-30 13:15:00
9:35 AM,71.8,62.4,72,29.85,10.0,Calm,Calm,-,N/A,,Mostly Cloudy,0,2013-06-30 13:35:00
9:55 AM,72.1,61.2,68,29.86,10.0,Calm,Calm,-,N/A,,Mostly Cloudy,0,2013-06-30 13:55:00
10:15 AM,71.2,61.0,70,29.86,10.0,Calm,Calm,-,N/A,,Mostly Cloudy,0,2013-06-30 14:15:00
10:35 AM,73.9,60.1,62,29.86,10.0,NW,3.5,-,N/A,,Mostly Cloudy,310,2013-06-30 14:35:00
10:55 AM,75.6,59.2,57,29.86,10.0,Calm,Calm,-,N/A,,Mostly Cloudy,0,2013-06-30 14:55:00
11:35 AM,72.7,58.8,62,29.86,10.0,NW,4.6,-,N/A,,Overcast,310,2013-06-30 15:35:00
11:55 AM,74.3,60.3,61,29.87,10.0,NW,4.6,-,N/A,,Overcast,320,2013-06-30 15:55:00
12:15 PM,75.6,60.6,60,29.86,10.0,West,4.6,-,N/A,,Overcast,280,2013-06-30 16:15:00
12:35 PM,76.6,58.6,54,29.87,10.0,West,5.8,-,N/A,,Overcast,280,2013-06-30 16:35:00
12:55 PM,76.3,58.8,55,29.86,10.0,West,6.9,-,N/A,,Overcast,280,2013-06-30 16:55:00
1:15 PM,75.9,59.5,57,29.87,10.0,WNW,4.6,-,N/A,,Overcast,300,2013-06-30 17:15:00
1:35 PM,77.4,59.0,53,29.87,10.0,Calm,Calm,-,N/A,,Overcast,0,2013-06-30 17:35:00
1:55 PM,75.9,59.0,56,29.87,10.0,Calm,Calm,-,N/A,,Overcast,0,2013-06-30 17:55:00
2:15 PM,77.4,59.9,55,29.87,10.0,NNW,3.5,-,N/A,,Mostly Cloudy,340,2013-06-30 18:15:00
2:35 PM,77.2,60.1,55,29.87,10.0,Calm,Calm,-,N/A,,Mostly Cloudy,0,2013-06-30 18:35:00
2:55 PM,77.4,59.9,55,29.87,10.0,NE,3.5,-,N/A,,Overcast,50,2013-06-30 18:55:00
3:15 PM,77.4,60.8,57,29.87,10.0,ENE,3.5,-,N/A,,Mostly Cloudy,60,2013-06-30 19:15:00
3:35 PM,78.4,59.9,53,29.87,10.0,ENE,4.6,-,N/A,,Mostly Cloudy,70,2013-06-30 19:35:00
3:55 PM,80.4,61.0,51,29.86,10.0,East,4.6,-,N/A,,Mostly Cloudy,100,2013-06-30 19:55:00
4:15 PM,78.6,59.9,52,29.86,10.0,Calm,Calm,-,N/A,,Scattered Clouds,0,2013-06-30 20:15:00
4:35 PM,79.2,59.9,52,29.86,10.0,SW,3.5,-,N/A,,Mostly Cloudy,220,2013-06-30 20:35:00
4:55 PM,79.0,60.8,54,29.87,10.0,WSW,3.5,-,N/A,,Overcast,240,2013-06-30 20:55:00
5:15 PM,80.8,60.3,49,29.87,10.0,Calm,Calm,-,N/A,,Scattered Clouds,0,2013-06-30 21:15:00
5:35 PM,78.4,61.3,56,29.87,10.0,NNW,3.5,-,N/A,,Mostly Cloudy,330,2013-06-30 21:35:00
5:55 PM,79.3,61.0,53,29.88,10.0,NW,5.8,-,N/A,,Mostly Cloudy,310,2013-06-30 21:55:00
6:15 PM,77.4,61.7,58,29.89,10.0,Calm,Calm,-,N/A,,Mostly Cloudy,0,2013-06-30 22:15:00
6:35 PM,77.4,62.2,59,29.89,10.0,NNW,4.6,-,N/A,,Scattered Clouds,340,2013-06-30 22:35:00
6:55 PM,77.4,61.2,57,29.90,10.0,North,4.6,-,N/A,,Scattered Clouds,360,2013-06-30 22:55:00
7:15 PM,75.6,61.9,62,29.91,10.0,North,6.9,-,N/A,,Mostly Cloudy,10,2013-06-30 23:15:00
7:35 PM,74.7,61.5,63,29.91,10.0,North,5.8,-,N/A,,Mostly Cloudy,360,2013-06-30 23:35:00
7:55 PM,74.5,62.1,65,29.91,10.0,North,4.6,-,N/A,,Scattered Clouds,360,2013-06-30 23:55:00
8:15 PM,73.8,62.2,67,29.92,10.0,NNE,3.5,-,N/A,,Scattered Clouds,20,2013-07-01 00:15:00
8:35 PM,73.8,61.7,66,29.91,10.0,NNE,5.8,-,N/A,,Scattered Clouds,30,2013-07-01 00:35:00
8:55 PM,72.7,61.7,68,29.92,10.0,NNE,3.5,-,N/A,,Scattered Clouds,20,2013-07-01 00:55:00
9:15 PM,72.5,61.5,68,29.94,10.0,Calm,Calm,-,N/A,,Scattered Clouds,0,2013-07-01 01:15:00
9:35 PM,72.0,62.2,71,29.95,10.0,Calm,Calm,-,N/A,,Overcast,0,2013-07-01 01:35:00
9:55 PM,71.2,63.3,76,29.95,10.0,SSE,6.9,-,N/A,,Mostly Cloudy,160,2013-07-01 01:55:00
10:15 PM,70.3,63.7,79,29.96,10.0,SSE,4.6,-,N/A,Rain,Light Rain,150,2013-07-01 02:15:00
10:35 PM,69.1,63.9,83,29.96,7.0,Calm,Calm,-,N/A,Rain,Rain,0,2013-07-01 02:35:00
10:55 PM,68.0,64.0,87,29.97,7.0,West,4.6,-,N/A,Rain,Light Rain,280,2013-07-01 02:55:00
11:15 PM,67.6,63.0,85,29.97,10.0,Calm,Calm,-,N/A,,Drizzle,0,2013-07-01 03:15:00
11:35 PM,67.3,62.6,85,29.98,10.0,Calm,Calm,-,N/A,Rain,Light Rain,0,2013-07-01 03:35:00
11:55 PM,67.1,62.6,85,29.96,10.0,Calm,Calm,-,N/A,Rain,Light Rain,0,2013-07-01 03:55:00